Preview of NWS' New Version of Forecast
This preview is not operational and should not be used for support decisions.

Regional Weather Roundup (RWR)

Issued by Philadelphia/Mt Holly (PHI)

                            
000
ASUS41 KPHI 210612
RWRPHI

REGIONAL WEATHER ROUNDUP
NATIONAL WEATHER SERVICE MOUNT HOLLY NJ
200 AM EDT THU MAR 21 2019

NOTE:  "FAIR" INDICATES FEW OR NO CLOUDS BELOW 12,000 FEET WITH NO
SIGNIFICANT WEATHER AND/OR OBSTRUCTIONS TO VISIBILITY.

 * = STATION DOES NOT REPORT PRECIPITATION (E.G. RAIN, SNOW, ETC.) 
        OR FOG.

NJZ015>026-210700-
SOUTHERN NEW JERSEY
  
CITY           SKY/WX    TMP DP  RH WIND       PRES   REMARKS
POMONA         CLOUDY    45  43  93 E8        30.20F                  
6HR MIN TEMP:  43; 6HR MAX TEMP:  46; 6HR PCP:  0.02;                

WILDWOOD*      CLOUDY    46  42  86 E9        30.19F                  
MILLVILLE      CLOUDY   N/A N/A N/A E6        30.18F                  
WRIGHTSTOWN    MOCLDY    41  34  76 E5        30.18F                  
MOUNT HOLLY    CLOUDY    42  34  73 E3        30.20F                  
TRENTON        CLOUDY    42  33  70 E6        30.20F                  
6HR MIN TEMP:  41; 6HR MAX TEMP:  45;                                


$$
NJZ001>014-210700-
NORTHERN NEW JERSEY
  
CITY           SKY/WX    TMP DP  RH WIND       PRES   REMARKS
SUSSEX         MOCLDY    36  29  75 CALM      30.22F                  
ANDOVER*         N/A     41  29  62 S3        30.20F                  
MORRISTOWN     CLOUDY    39  36  87 CALM      30.23S                  
NEWARK         CLOUDY    44  36  73 E3        30.23F                  
TETERBORO      CLOUDY    44  33  65 CALM      30.23F                  
CALDWELL       CLOUDY    40  34  79 CALM      30.24F                  
SOMERVILLE     CLOUDY    39  32  76 CALM      30.21F                  
ALLAIRE*       CLOUDY    42  37  82 E6        30.23F                  
TOMS RIVER*    CLOUDY    42  40  92 E5        30.22F                  

$$
PAZ043-044-047-054-055-060>062-066>071-210700-
EASTERN PENNSYLVANIA
  
CITY           SKY/WX    TMP DP  RH WIND       PRES   REMARKS
PHILADELPHIA   MOCLDY    45  35  68 E8        30.20F                  
6HR MIN TEMP:  43; 6HR MAX TEMP:  47; 6HR PCP: TRACE;                

NORTH PHILA    CLOUDY    45  33  63 E7        30.22F                  
BLUE BELL*     CLOUDY    41  32  70 CALM      30.21F                  
DOYLESTOWN     CLOUDY    41  31  67 CALM      30.20F                  
QUAKERTOWN*    MOCLDY    39  30  70 CALM      30.20F                  
PERKASIE*      CLOUDY    39  32  75 E5        30.20F                  
POTTSTOWN      CLOUDY    40  30  67 NE3       30.20F                  
LANCASTER      CLOUDY    42  34  73 E7        30.17F                  
COATESVILLE    CLOUDY    41  32  70 E7        30.18S                  
READING        CLOUDY    44  32  62 SE6       30.18F                  
6HR MIN TEMP:  43; 6HR MAX TEMP:  47;                                

ALLENTOWN      CLOUDY    44  29  55 SE3       30.20F                  
6HR MIN TEMP:  44; 6HR MAX TEMP:  50;                                

MOUNT POCONO   CLOUDY    34  28  79 SE8       30.15F WCI  27          
6HR MIN TEMP:  33; 6HR MAX TEMP:  38;                                

HAZLETON       CLOUDY    37  28  70 SE8       30.17S WCI  31          
LEHIGHTON      CLOUDY    41  30  65 CALM      30.20F                  
WILKES BARRE   FAIR      39  30  70 SE3       30.16F                  

$$
DEZALL-MDZ008-012-015-019-020-210700-
DELAWARE AND EASTERN MARYLAND
  
CITY           SKY/WX    TMP DP  RH WIND       PRES   REMARKS
WILMINGTON     CLOUDY    44  35  70 E6        30.19F                  
6HR MIN TEMP:  43; 6HR MAX TEMP:  46; 6HR PCP: TRACE;                

DOVER          DRIZZLE   44  43  96 E7        30.17F FOG              
GEORGETOWN     LGT RAIN  48  44  86 E6        30.17F                  
6HR MIN TEMP:  47; 6HR MAX TEMP:  49; 6HR PCP:  0.01;                

EASTON         MOCLDY    44  42  95 E3        30.18F                  
PATUXENT       LGT RAIN  46  46 100 N3        30.13  FOG              
OCEAN CITY     LGT RAIN  46  44  93 E6        30.15F                  
WALLOPS ISLAND RAIN      49  47  93 NE7       30.14F FOG              
CAMBRIDGE      MOCLDY    45  43  93 NE5       30.14F FOG              
SALISBURY      LGT RAIN  47  46  97 E6        30.14F                  

$$
PAZ001-021-NYZ056-072-MDZ011-DCZ001-210700-
OTHER NEARBY LOCATIONS
  
CITY           SKY/WX    TMP DP  RH WIND       PRES   REMARKS
HARRISBURG     MOCLDY    41  32  70 E8        30.16F                  
STATE COLLEGE  FAIR      40  22  48 CALM      30.09F                  
WILLIAMSPORT   FAIR      41  24  51 E10       30.14F                  
BINGHAMTON     MOCLDY    37  19  48 S9        30.10F WCI  30          
NEW YORK CITY  MOCLDY    45  33  63 CALM      30.26F                  
BALTIMORE      LGT RAIN  44  39  82 E7        30.16F                  
WASHINGTON DC  LGT RAIN  47  38  71 CALM      30.17F                  

$$